EUS35RD HESH-LGKR

Flight info

Callsign EUS35RD
Flight time N/A
Altitude 36000
Route KAPIT L677 CVO L617 NOZ L551 ANTAR UN133 KPC UN137 TIPAS UL53 PARNA
Aircraft B738/M-SDE2E3FGHIRWXY/LB1

Departure

Time 2026-05-09 07:45
Airport Sharm El Sheikh International Airport (HESH)

Arrival

Time N/A
Airport Corfu Ioannis Kapodistrias International Airport (LGKR)
Time Latitude Longitude Altitude Speed Heading
2026-05-09 07:23 27.97022 34.38145 139 ft 14 kts 216°
2026-05-09 07:24 27.96937 34.38172 140 ft 14 kts 134°
2026-05-09 07:24 27.96872 34.38251 141 ft 13 kts 133°
2026-05-09 07:24 27.96811 34.38326 141 ft 13 kts 133°
2026-05-09 07:24 27.96790 34.38351 141 ft 1 kts 133°
2026-05-09 07:25 27.96779 34.38364 140 ft 4 kts 133°
2026-05-09 07:25 27.96752 34.38396 137 ft 8 kts 133°
2026-05-09 07:25 27.96701 34.38458 128 ft 14 kts 133°
2026-05-09 07:25 27.96625 34.38551 123 ft 17 kts 133°
2026-05-09 07:26 27.96545 34.38648 120 ft 17 kts 133°
2026-05-09 07:26 27.96468 34.38741 122 ft 16 kts 133°
2026-05-09 07:26 27.96395 34.38833 117 ft 15 kts 131°
2026-05-09 07:26 27.96326 34.38922 118 ft 15 kts 130°
2026-05-09 07:27 27.96260 34.39010 116 ft 14 kts 130°
2026-05-09 07:27 27.96248 34.39027 113 ft 0 kts 130°
2026-05-09 07:28 27.97713 34.38720 135 ft 0 kts 310°
2026-05-09 07:40 27.97713 34.38719 135 ft 1 kts 310°
2026-05-09 07:40 27.97714 34.38706 135 ft 2 kts 251°
2026-05-09 07:41 27.97702 34.38702 135 ft 2 kts 176°
2026-05-09 07:41 27.97681 34.38713 135 ft 6 kts 158°
2026-05-09 07:42 27.97499 34.38642 137 ft 16 kts 222°
2026-05-09 07:42 27.97410 34.38548 137 ft 19 kts 224°
2026-05-09 07:42 27.97307 34.38441 138 ft 20 kts 222°
2026-05-09 07:42 27.97203 34.38335 139 ft 20 kts 222°
2026-05-09 07:43 27.97104 34.38230 139 ft 19 kts 224°
2026-05-09 07:43 27.97015 34.38139 140 ft 14 kts 208°
2026-05-09 07:43 27.96933 34.38177 140 ft 14 kts 134°
2026-05-09 07:43 27.96877 34.38259 141 ft 13 kts 106°
2026-05-09 07:44 27.96921 34.38340 141 ft 14 kts 44°
2026-05-09 07:44 27.97159 34.38589 140 ft 83 kts 42°
2026-05-09 07:44 27.97757 34.39210 136 ft 147 kts 40°
2026-05-09 07:44 27.98588 34.40055 602 ft 165 kts 38°
2026-05-09 07:45 27.99474 34.40899 1375 ft 168 kts 26°
2026-05-09 07:45 28.00611 34.41153 2123 ft 175 kts 356°
2026-05-09 07:45 28.01893 34.41426 2435 ft 207 kts 30°
2026-05-09 07:45 28.03171 34.42366 2669 ft 227 kts 31°
2026-05-09 07:46 28.04564 34.43299 3162 ft 244 kts 29°
2026-05-09 07:46 28.06131 34.44280 3711 ft 265 kts 29°
2026-05-09 07:46 28.07761 34.45272 4549 ft 267 kts 29°
2026-05-09 07:46 28.09429 34.46267 5266 ft 275 kts 29°
2026-05-09 07:47 28.11136 34.47277 6022 ft 279 kts 29°
2026-05-09 07:47 28.12908 34.48214 6723 ft 285 kts 16°
2026-05-09 07:47 28.14887 34.48428 7479 ft 287 kts
2026-05-09 07:47 28.16890 34.48440 8261 ft 289 kts
2026-05-09 07:48 28.18911 34.48458 9030 ft 292 kts
2026-05-09 07:48 28.20944 34.48374 9792 ft 295 kts 348°
2026-05-09 07:48 28.22823 34.47434 10361 ft 304 kts 322°
2026-05-09 07:48 28.24216 34.45535 10530 ft 327 kts 298°
2026-05-09 07:49 28.25269 34.43160 10715 ft 348 kts 295°
2026-05-09 07:49 28.26307 34.40657 11036 ft 361 kts 295°
2026-05-09 07:49 28.27373 34.38055 11612 ft 365 kts 295°
2026-05-09 07:49 28.28453 34.35438 11919 ft 366 kts 295°
2026-05-09 07:50 28.29539 34.32834 11943 ft 365 kts 295°
2026-05-09 07:50 28.30632 34.30231 11950 ft 366 kts 295°
2026-05-09 07:50 28.31733 34.27621 11955 ft 366 kts 296°
2026-05-09 07:50 28.32832 34.25024 11960 ft 366 kts 296°
2026-05-09 07:51 28.33936 34.22416 11966 ft 366 kts 296°
2026-05-09 07:51 28.35034 34.19820 11963 ft 366 kts 296°
2026-05-09 07:51 28.36137 34.17213 11977 ft 365 kts 296°
2026-05-09 07:51 28.37235 34.14613 11981 ft 365 kts 296°
2026-05-09 07:52 28.38334 34.12012 11974 ft 365 kts 296°
2026-05-09 07:52 28.39431 34.09413 11993 ft 365 kts 295°
2026-05-09 07:52 28.40528 34.06813 11986 ft 365 kts 296°
2026-05-09 07:52 28.41626 34.04209 12086 ft 369 kts 295°
2026-05-09 07:53 28.42741 34.01563 12754 ft 370 kts 295°
2026-05-09 07:53 28.43853 33.98924 13507 ft 370 kts 296°
2026-05-09 07:53 28.44964 33.96284 14149 ft 372 kts 295°
2026-05-09 07:53 28.46084 33.93623 14736 ft 374 kts 295°
2026-05-09 07:54 28.47211 33.90941 15325 ft 377 kts 295°
2026-05-09 07:54 28.48344 33.88238 15912 ft 380 kts 295°
2026-05-09 07:54 28.49484 33.85520 16481 ft 382 kts 295°
2026-05-09 07:54 28.50631 33.82787 17050 ft 384 kts 295°
2026-05-09 07:55 28.51767 33.80079 17654 ft 385 kts 295°
2026-05-09 07:55 28.52923 33.77320 18221 ft 387 kts 295°
2026-05-09 07:55 28.54084 33.74544 18682 ft 390 kts 295°
2026-05-09 07:55 28.55253 33.71750 19137 ft 392 kts 295°
2026-05-09 07:56 28.56429 33.68938 19577 ft 395 kts 295°
2026-05-09 07:56 28.57610 33.66109 20050 ft 397 kts 295°
2026-05-09 07:56 28.58797 33.63264 20501 ft 399 kts 295°
2026-05-09 07:56 28.59990 33.60402 20925 ft 402 kts 295°
2026-05-09 07:57 28.61190 33.57524 21354 ft 405 kts 295°
2026-05-09 07:57 28.62403 33.54610 21782 ft 407 kts 295°
2026-05-09 07:57 28.63618 33.51690 22200 ft 410 kts 295°
2026-05-09 07:57 28.64844 33.48747 22600 ft 413 kts 295°
2026-05-09 07:58 28.66084 33.45782 22987 ft 416 kts 295°
2026-05-09 07:58 28.67330 33.42801 23395 ft 418 kts 295°
2026-05-09 07:58 28.68586 33.39796 23743 ft 421 kts 295°
2026-05-09 07:58 28.69844 33.36788 24081 ft 422 kts 295°
2026-05-09 07:59 28.71112 33.33761 24421 ft 424 kts 295°
2026-05-09 07:59 28.72384 33.30727 24781 ft 425 kts 295°
2026-05-09 07:59 28.73661 33.27683 25130 ft 426 kts 295°
2026-05-09 07:59 28.74943 33.24631 25473 ft 427 kts 295°
2026-05-09 08:00 28.76213 33.21612 25829 ft 429 kts 295°
2026-05-09 08:00 28.77503 33.18549 26167 ft 430 kts 295°
2026-05-09 08:00 28.79089 33.15601 26463 ft 434 kts 307°
2026-05-09 08:00 28.81154 33.13141 26782 ft 436 kts 314°
2026-05-09 08:01 28.83362 33.10762 27110 ft 437 kts 315°
2026-05-09 08:01 28.85579 33.08377 27407 ft 439 kts 315°
2026-05-09 08:01 28.87793 33.05967 27680 ft 441 kts 314°
2026-05-09 08:01 28.90008 33.03522 27942 ft 443 kts 314°
2026-05-09 08:02 28.92217 33.01058 28216 ft 445 kts 314°
2026-05-09 08:02 28.94422 32.98580 28502 ft 446 kts 314°
2026-05-09 08:02 28.96636 32.96084 28794 ft 447 kts 313°
2026-05-09 08:02 28.98858 32.93574 29043 ft 449 kts 313°
2026-05-09 08:03 29.01077 32.91066 29355 ft 449 kts 313°
2026-05-09 08:03 29.03295 32.88560 29781 ft 447 kts 313°
2026-05-09 08:03 29.05506 32.86060 30211 ft 445 kts 313°
2026-05-09 08:03 29.07703 32.83577 30567 ft 443 kts 313°
2026-05-09 08:04 29.09888 32.81104 30884 ft 443 kts 313°
2026-05-09 08:04 29.12045 32.78661 31188 ft 442 kts 313°
2026-05-09 08:04 29.14227 32.76189 31510 ft 441 kts 313°
2026-05-09 08:04 29.16407 32.73717 31815 ft 440 kts 313°
2026-05-09 08:05 29.18578 32.71253 32141 ft 439 kts 313°
2026-05-09 08:05 29.20747 32.68790 32474 ft 437 kts 312°
2026-05-09 08:05 29.22903 32.66341 32827 ft 436 kts 312°
2026-05-09 08:05 29.25049 32.63902 33159 ft 434 kts 312°
2026-05-09 08:06 29.27160 32.61502 33471 ft 433 kts 312°
2026-05-09 08:06 29.29231 32.58996 33793 ft 429 kts 307°
2026-05-09 08:06 29.31105 32.56354 34093 ft 427 kts 305°
2026-05-09 08:06 29.32924 32.53672 34372 ft 425 kts 304°
2026-05-09 08:07 29.34726 32.50981 34615 ft 425 kts 304°
2026-05-09 08:07 29.36524 32.48299 34859 ft 424 kts 304°
2026-05-09 08:07 29.38328 32.45625 35081 ft 424 kts 304°
2026-05-09 08:07 29.40139 32.42956 35295 ft 424 kts 305°
2026-05-09 08:08 29.41952 32.40296 35490 ft 424 kts 305°
2026-05-09 08:08 29.43772 32.37631 35693 ft 424 kts 305°
2026-05-09 08:08 29.45591 32.34969 35921 ft 423 kts 305°
2026-05-09 08:08 29.47408 32.32309 36071 ft 424 kts 305°
2026-05-09 08:09 29.49235 32.29633 36069 ft 427 kts 305°
2026-05-09 08:09 29.52883 32.24283 36069 ft 423 kts 305°
2026-05-09 08:10 29.56471 32.19015 36072 ft 419 kts 305°
2026-05-09 08:10 29.60049 32.13754 36082 ft 416 kts 305°
2026-05-09 08:11 29.63603 32.08519 36094 ft 417 kts 305°
2026-05-09 08:11 29.67209 32.03199 36097 ft 424 kts 305°
2026-05-09 08:12 29.72682 31.95117 36093 ft 429 kts 305°
2026-05-09 08:12 29.76348 31.89693 36092 ft 430 kts 305°
2026-05-09 08:13 29.79973 31.84271 36093 ft 429 kts 303°
2026-05-09 08:13 29.83510 31.78758 36095 ft 427 kts 303°
2026-05-09 08:14 29.84836 31.76683 36096 ft 426 kts 303°
2026-05-09 08:14 29.88353 31.71198 36092 ft 424 kts 303°
2026-05-09 08:15 29.91858 31.65747 36098 ft 422 kts 303°
2026-05-09 08:15 29.95351 31.60332 36090 ft 420 kts 303°
2026-05-09 08:16 29.98810 31.54969 36074 ft 418 kts 303°
2026-05-09 08:16 29.99395 31.54061 36076 ft 418 kts 303°